Hourly Data Report for October 27, 2020

L'ASSOMPTION
QUEBEC
Current Station Operator: ECCC - MSC

45°48'34.000" N
73°26'05.000" W
21.00 m
7014160
71524
WEW

Download Data

Hourly Data (October 2020)
Hourly Data Report for October 27, 2020
TIME
LST
Temp Definition
°C
Dew Point Definition
°C
Rel Hum Definition
%
Precip. Amount Definition
mm

Wind Dir Definition
10's deg

Wind Spd Definition
km/h
Visibility Definition
km
Stn Press Definition
kPa
Hmdx Definition


Wind Chill Definition


Weather Definition


00:00 3.0 2.3 95 0.2 24 4   101.93     LegendNANA
01:00 3.0 2.2 95 0.0 26 5   102.00     LegendNANA
02:00 2.8 2.0 95 0.0 29 4   102.05     LegendNANA
03:00 2.5 1.4 93 0.0 28 3   102.04     LegendNANA
04:00 2.1 1.2 93 0.0 26 3   102.09     LegendNANA
05:00 1.9 0.6 91 0.0 29 5   102.17     LegendNANA
06:00 1.1 -0.9 87 0.0 32 7   102.22     LegendNANA
07:00 0.1 -2.7 81 0.0 32 10   102.30     LegendNANA
08:00 0.5 -3.3 76 0.0 31 13   102.37     LegendNANA
09:00 -0.3 -5.8 66 0.0 33 15   102.37   -5 LegendNANA
10:00 0.4 -6.3 61 0.0 35 10   102.35     LegendNANA
11:00 0.6 -6.9 57 0.0 33 12   102.33     LegendNANA
12:00 1.3 -7.1 53 0.0 29 6   102.30     LegendNANA
13:00 1.9 -6.7 53 0.0 34 8   102.25     LegendNANA
14:00 1.9 -6.4 54 0.0 31 9   102.19     LegendNANA
15:00 2.2 -5.9 55 0.0 1 5   102.11     LegendNANA
16:00 1.8 -5.2 59 0.0 35 6   102.15     LegendNANA
17:00 0.8 -5.1 64 0.0 5 7   102.17     LegendNANA
18:00 0.0 -5.0 69 0.0 3 4   102.19   -1 LegendNANA
19:00 -1.2 -4.9 76 0.0 4 3   102.13   -2 LegendNANA
20:00 -2.1 -5.3 78 0.0 35 2   102.12   -3 LegendNANA
21:00 -2.7 -4.5 88 0.0 31 3   102.16   -4 LegendNANA
22:00 -3.6 -4.8 91 0.0 3 2   102.09   -4 LegendNANA
23:00 -3.5 -4.2 95 0.0 28 2   102.02   -4 LegendNANA

Notes on Data Quality.

Legend

  • E = Estimated
  • M = Missing
  • NA = Not Available*
  • [empty] = Indicates an unobserved value
Date modified: